sat.trackr.live / text

‹ back to catalog

STARLINK-1815

NORAD 46713 · 2020-073AV

PAYLOAD ACTIVE UNKNOWN

§ Identity

Operator
Country
US
Launch date
2020-10-18
Launch site
AFETR
Launch vehicle
Mass (kg)
RCS (m²)

Purposes: comms

External: N2YO · Heavens-Above · Gunter

§ Orbital elements

Epoch: 2026-06-16T23:16:35.757984Z

Period
87.90 min
Inclination
53.0216°
Eccentricity
0.0010861
Mean motion
16.38175792 rev/d
Perigee alt
163.5 km
Apogee alt
177.8 km
Semi-major
6,548.8 km
B*
6.3696e-4
RAAN
60.4470°
Arg perigee
263.6085°
Mean anomaly
96.3723°
Rev number
31,342

§ Raw data

STARLINK-18151 46713U 20073AV  26167.96985831  .07216199  12294-4  63696-3 0  99942 46713  53.0216  60.4470 0010861 263.6085  96.3723 16.38175792313429

JSON: /api/v1/satellites/46713 · /tle

For live sub-satellite position, see the globe view (requires WebGL).

§ Visibility from observer

Set your observer location to see the next 7 days of passes ≥ 10°. The values pass through the URL so the page stays shareable.

No JS? Fill the form by hand. The geolocation button needs JavaScript.